Regional Weather Roundup
Issued by NWS

Home | Current Version | Previous Version | Graphics & Text | Print | Product List | Glossary On
Versions: 1 2 3 4 5 6 7 8 9 10 11 12 13 14 15 16 17 18 19 20 21 22 23 24 25 26 27 28 29 30 31 32 33 34 35 36 37 38 39 40 41 42 43 44 45 46 47 48 49 50
597
ASUS43 KLMK 291002
RWRKY
KENTUCKY REGIONAL WEATHER ROUNDUP
NATIONAL WEATHER SERVICE LOUISVILLE KY
600 AM EDT THU JUN 29 2017

NOTE "FAIR" INDICATES FEW OR NO CLOUDS BELOW 12,000 FEET
WITH NO SIGNIFICANT WEATHER AND/OR OBSTRUCTIONS TO VISIBILITY.

KYZ001>023-026-027-061>063-070>075-291100-
WESTERN AND SOUTH CENTRAL KENTUCKY

CITY           SKY/WX    TMP DP  RH WIND       PRES   REMARKS
PADUCAH        CLEAR     72  64  76 S6        29.99R
HENDERSON      CLOUDY    70  64  81 S7        30.01S
OWENSBORO      PTCLDY    67  63  87 S8        30.02R
HOPKINSVILLE   CLEAR     71  64  76 S7        30.04R
BOWLING GREEN  CLOUDY    71  63  75 S8        30.06R
GLASGOW        NOT AVBL
$$

KYZ024-025-028>034-038-045-046-053-291100-
NORTH CENTRAL KENTUCKY

CITY           SKY/WX    TMP DP  RH WIND       PRES   REMARKS
LOUISVILLE/SDF CLOUDY    73  58  59 S7        30.03R
LOUISVILLE/LOU CLOUDY    70  58  65 S3        30.04R
FORT KNOX      CLOUDY    65  57  75 S7        30.03R
$$

KYZ035>037-039>044-047>052-055>060-089>105-291100-
NORTHEAST KENTUCKY

CITY           SKY/WX    TMP DP  RH WIND       PRES   REMARKS
LEXINGTON      CLEAR     67  57  70 S10       30.08R
COVINGTON      CLOUDY    65  57  75 S8        30.03R
FRANKFORT      CLEAR     68  57  68 S9        30.05R
$$

KYZ054-064>069-076>088-106>120-291100-
SOUTHEAST KENTUCKY

CITY           SKY/WX    TMP DP  RH WIND       PRES   REMARKS
JACKSON        CLEAR     64  56  75 CALM      30.12R
LONDON         PTCLDY    62  55  77 CALM      30.13R
SOMERSET       CLEAR     64  57  77 S3        30.12R
MIDDLESBORO    CLOUDY    57  57  99 CALM      30.16R
MONTICELLO     MOSUNNY   70  63  78 VRB5      30.12S
$$





USA.gov is the U.S. government's official web portal to all federal, state and local government web resources and services.